Flag for Tunisia Weather past 2 weeks in Houmt Souk (Djerba), Tunisia

Now
86 °F

Sunny.


Feels Like: 89 °F
Forecast: 79 / 94 °F
Wind: 16 mph from East

Location: Djerba Mellita

Current Time: Jul 28, 2014 at 6:07:10 PM

Latest Report: Jul 28, 2014 at 5:30 PM


Visibility: 10 mi

Pressure: 29.89 "Hg

Humidity: 55%

Dew point: 68 °F

Location of Houmt Souk (Djerba)Location

Historic Weather in Houmt Souk (Djerba) — Graph

°F

Houmt Souk (Djerba) temperature yesterday

Maximum temperature yesterday: 88 °F (at 10:30 AM)
Minimum temperature yesterday: 81 °F (at 10:30 PM)
Average temperature yesterday: 84 °F

Past Weeks' High & Low Weather Summary

 TemperatureHumidityPressure
High104 °F (Jul 26, 3:00 PM)94% (Jul 15, 4:30 AM)30.07 "Hg (Jul 15, 4:30 AM)
Low70 °F (Jul 19, 5:30 AM)17% (Jul 20, 1:00 PM)29.71 "Hg (Jul 26, 4:30 PM)
Average84 °F60%29.94 "Hg
* Reported Jul 13 5:00 PM — Jul 28 5:00 PM, Houmt Souk (Djerba), Weather by CustomWeather, © 2014

Note: Actual official high and low records may vary slightly from our data, if they occured in-between our weather recording intervals... More about our weather records

Advertising

Houmt Souk (Djerba) weather history for previous 24 hours

 ConditionsComfort  
Time TempWeatherWind HumidityBarometerVisibility
5:00 PM
Jul 28
86 °FSunny.15 mph55%29.89 "Hg10 mi
4:30 PM86 °FSunny.15 mph55%29.89 "Hg10 mi
4:00 PM88 °FSunny.15 mph49%29.92 "Hg10 mi
3:30 PM88 °FWarm.15 mph49%29.92 "HgN/A
2:30 PM86 °FSunny.14 mph49%29.95 "Hg10 mi
2:00 PM88 °FPassing clouds.14 mph46%29.95 "HgN/A
1:30 PM88 °FPassing clouds.14 mph49%29.95 "HgN/A
1:00 PM86 °FSunny.13 mph52%29.95 "Hg10 mi
12:30 PM86 °FPassing clouds.14 mph52%29.95 "HgN/A
12:00 PM86 °FPassing clouds.12 mph52%29.98 "HgN/A
11:30 AM86 °FPassing clouds.10 mph55%29.98 "HgN/A
11:00 AM86 °FSunny.10 mph52%29.98 "Hg10 mi
10:30 AM86 °FSunny.10 mph55%29.98 "Hg10 mi
10:00 AM86 °FSunny.10 mph55%29.98 "Hg10 mi
9:30 AM84 °FSunny.12 mph62%29.98 "Hg10 mi
9:00 AM84 °FSunny.9 mph62%29.98 "Hg10 mi
8:30 AM84 °FSunny.10 mph62%29.98 "Hg10 mi
8:00 AM82 °FClear.9 mph66%29.98 "Hg5 mi
7:30 AM82 °FClear.8 mph66%29.98 "Hg5 mi
7:00 AM81 °FClear.3 mph66%29.95 "Hg5 mi
6:30 AM77 °FClear.5 mph74%29.95 "Hg5 mi
6:00 AM79 °FPassing clouds.5 mph70%29.95 "Hg5 mi
5:30 AM79 °FPassing clouds.3 mph70%29.95 "Hg5 mi
5:00 AM79 °FPassing clouds.5 mph70%29.92 "Hg5 mi
4:30 AM79 °FPassing clouds.5 mph70%29.92 "Hg5 mi
4:00 AM79 °FPassing clouds.5 mph70%29.92 "Hg5 mi
3:30 AM79 °FPassing clouds.6 mph65%29.92 "Hg5 mi
3:00 AM77 °FPassing clouds.No wind69%29.95 "Hg5 mi
2:30 AM77 °FPassing clouds.No wind69%29.95 "HgN/A
2:00 AM77 °FPassing clouds.No wind69%29.95 "HgN/A
1:30 AM77 °FPassing clouds.No wind69%29.95 "HgN/A
1:00 AM77 °FPassing clouds.2 mph69%29.95 "HgN/A
12:30 AM81 °FPassing clouds.5 mph62%29.95 "HgN/A
12:00 AM81 °FPassing clouds.7 mph62%29.95 "HgN/A
11:30 PM
Jul 27
81 °FPassing clouds.8 mph62%29.95 "HgN/A
11:00 PM81 °FPassing clouds.8 mph62%29.95 "HgN/A
10:30 PM81 °FPassing clouds.9 mph62%29.95 "HgN/A
10:00 PM82 °FPassing clouds.10 mph58%29.95 "HgN/A
9:30 PM82 °FPassing clouds.10 mph55%29.95 "HgN/A
9:00 PM82 °FPassing clouds.12 mph55%29.95 "HgN/A
8:30 PM82 °FPassing clouds.12 mph58%29.95 "HgN/A
8:00 PM82 °FPassing clouds.12 mph62%29.92 "HgN/A
7:30 PM82 °FPassing clouds.13 mph62%29.92 "HgN/A
7:00 PM82 °FPassing clouds.14 mph62%29.92 "HgN/A
6:30 PM84 °FPassing clouds.15 mph58%29.92 "HgN/A
6:00 PM84 °FPassing clouds.15 mph58%29.92 "HgN/A
Weather by CustomWeather, © 2014

See weather overviewHow to use our weather pages